CW4645 Weather Reports


Display with metric or nautical units.
time (UTC)temp
F
wind
direction
speed
MPH
gust
MPH
rain 1hr
in
rain 24hr
in
rain mn
in
humidity
%
barometer
mb
20260906090040 71 168 0.0 0.0 0.00 0.00 0.00 93 1009.8
20260906084530 71 168 0.0 0.0 0.00 0.00 0.00 93 1009.6
20260906083057 71 168 0.0 0.0 0.00 0.00 0.00 93 1009.6
20260906081552 71 168 0.0 0.0 0.00 0.00 0.00 93 1009.8
20260906080042 71 168 0.0 0.0 0.00 0.00 0.00 93 1009.9
20260906074557 71 168 0.0 0.0 0.00 0.00 0.00 93 1009.7
20260906073049 72 168 0.0 0.0 0.00 0.00 0.00 93 1009.7
20260906071600 72 168 0.0 0.0 0.00 0.00 0.00 92 1009.6
20260906070032 72 168 0.0 0.0 0.00 0.00 0.00 92 1009.6
20260906064548 72 168 0.0 0.0 0.00 0.00 0.00 92 1009.7
20260906063058 73 168 0.0 0.0 0.00 0.00 0.00 92 1009.8
20260906061542 73 168 0.0 1.0 0.00 0.00 0.00 92 1010.0
20260906060033 73 167 0.0 0.0 0.00 0.00 0.00 92 1010.4
20260906054531 73 52 0.0 0.0 0.00 0.00 0.00 92 1010.5
20260906053043 73 52 0.0 0.0 0.00 0.00 0.00 92 1010.5
20260906051556 73 45 0.0 0.0 0.00 0.00 0.00 92 1010.7
20260906050029 72 45 0.0 0.0 0.00 0.00 0.00 92 1010.9
20260906044556 73 45 0.0 0.0 0.00 0.00 0.00 92 1010.9
20260906043048 72 65 0.0 0.0 0.00 0.00 0.00 92 1010.9
20260906041536 72 65 0.0 0.0 0.00 0.00 0.00 91 1010.9
20260906040058 72 65 0.0 0.0 0.00 0.00 0.00 91 1010.5
20260906034537 73 65 0.0 0.0 0.00 0.00 0.00 91 1010.8
20260906033046 73 65 0.0 0.0 0.00 0.00 0.00 90 1010.7
20260906031542 73 65 0.0 0.0 0.00 0.00 0.00 90 1010.8
20260906030052 73 65 0.0 0.0 0.00 0.00 0.00 89 1010.9
20260906024542 74 65 0.0 0.0 0.00 0.00 0.00 89 1011.0
20260906023056 74 65 0.0 0.0 0.00 0.00 0.00 89 1011.1
20260906021533 74 65 0.0 0.0 0.00 0.00 0.00 90 1011.0
20260906020107 74 65 0.0 0.0 0.00 0.00 0.00 90 1010.8
20260906014556 74 65 0.0 0.0 0.00 0.00 0.00 89 1010.4
20260906013032 75 65 0.0 0.0 0.00 0.00 0.00 88 1010.4
20260906011600 75 65 0.0 0.0 0.00 0.00 0.00 88 1010.3
20260906010039 76 65 0.0 0.0 0.00 0.00 0.00 87 1010.2
20260906004556 76 65 0.0 0.0 0.00 0.00 0.00 86 1010.4
20260906003044 77 65 0.0 0.0 0.00 0.00 0.00 85 1010.7
20260906001557 77 65 0.0 0.0 0.00 0.00 0.00 84 1010.9
20260906000047 78 65 0.0 0.0 0.00 0.00 0.00 83 1010.9
20260905234546 78 65 0.0 0.0 0.00 0.00 0.00 83 1010.9
20260905233059 78 65 0.0 0.0 0.00 0.00 0.00 82 1010.7
20260905231553 78 66 0.0 0.0 0.00 0.00 0.00 82 1010.0
20260905230057 78 67 0.0 1.0 0.00 0.00 0.00 81 1009.5
20260905224555 79 20 0.0 3.0 0.00 0.00 0.00 79 1009.4
20260905223045 81 319 0.0 1.0 0.00 0.00 0.00 77 1009.7
20260905221539 82 313 0.0 3.0 0.00 0.00 0.00 75 1010.2
20260905220035 81 92 0.0 2.0 0.00 0.00 0.00 72 1009.7
20260905214530 82 76 0.0 2.0 0.00 0.00 0.00 69 1009.6
20260905213100 86 71 0.0 5.0 0.00 0.00 0.00 66 1009.4
20260905211536 93 231 0.0 1.0 0.00 0.00 0.00 55 1008.5
20260905210047 96 205 0.0 1.0 0.00 0.00 0.00 50 1008.8
20260905204552 98 205 0.0 2.0 0.00 0.00 0.00 50 1008.8
20260905203039 100 195 0.0 2.0 0.00 0.00 0.00 46 1008.4
20260905201550 101 121 0.0 1.0 0.00 0.00 0.00 46 1008.7
20260905200120 99 58 0.0 0.0 0.00 0.00 0.00 53 1008.6
20260905194555 98 58 0.0 0.0 0.00 0.00 0.00 52 1008.8
20260905193028 100 58 0.0 1.0 0.00 0.00 0.00 49 1008.8
20260905191540 100 59 0.0 1.0 0.00 0.00 0.00 49 1009.0
20260905190047 99 32 0.0 5.0 0.00 0.00 0.00 53 1009.3
20260905184544 100 80 0.0 1.0 0.00 0.00 0.00 49 1009.6
20260905183026 99 125 0.0 2.0 0.00 0.00 0.00 53 1010.0
20260905181527 98 219 0.0 2.0 0.00 0.00 0.00 53 1010.4
20260905180052 96 272 0.0 1.0 0.00 0.00 0.00 56 1010.5
20260905174556 98 162 0.0 1.0 0.00 0.00 0.00 56 1010.7
20260905173044 95 156 0.0 2.0 0.00 0.00 0.00 59 1010.8
20260905171555 98 98 0.0 5.0 0.00 0.00 0.00 56 1011.0
20260905170028 96 20 0.0 1.0 0.00 0.00 0.00 57 1011.3
20260905164528 96 14 0.0 5.0 0.00 0.00 0.00 59 1011.6
20260905163034 96 85 0.0 2.0 0.00 0.00 0.00 59 1011.9
20260905161618 95 30 1.0 4.0 0.00 0.00 0.00 60 1012.0
20260905160055 92 5 0.0 1.0 0.00 0.00 0.00 65 1012.0
20260905154546 91 80 0.0 3.0 0.00 0.00 0.00 67 1012.4
20260905153049 90 109 1.0 5.0 0.00 0.00 0.00 69 1012.5
20260905151545 89 344 0.0 4.0 0.00 0.00 0.00 72 1012.5
20260905150038 88 156 0.0 3.0 0.00 0.00 0.00 75 1012.9
20260905144533 87 11 0.0 3.0 0.00 0.00 0.00 76 1013.0
20260905143035 86 20 0.0 2.0 0.00 0.00 0.00 79 1013.0
20260905141543 85 56 0.0 0.0 0.00 0.00 0.00 82 1012.9
20260905140038 83 56 0.0 0.0 0.00 0.00 0.00 84 1013.0
20260905134542 82 56 1.0 3.0 0.00 0.00 0.00 87 1013.0
20260905133050 81 37 0.0 4.0 0.00 0.00 0.00 88 1013.0
20260905131601 80 26 0.0 0.0 0.00 0.00 0.00 91 1013.1
20260905130031 79 26 0.0 0.0 0.00 0.00 0.00 92 1013.3
20260905124606 78 26 0.0 0.0 0.00 0.00 0.00 94 1013.1
20260905123056 77 26 0.0 0.0 0.00 0.00 0.00 94 1013.0
20260905120045 75 26 0.0 0.0 0.00 0.00 0.00 94 1012.9
20260905114542 74 26 0.0 0.0 0.00 0.00 0.00 94 1012.9
20260905113038 73 26 0.0 0.0 0.00 0.00 0.00 94 1012.5
20260905111529 73 26 0.0 0.0 0.00 0.00 0.00 94 1012.5
20260905110039 74 26 0.0 0.0 0.00 0.00 0.00 94 1012.4
20260905104533 74 26 0.0 0.0 0.00 0.00 0.00 94 1012.3
20260905103038 74 26 0.0 0.0 0.00 0.00 0.00 94 1012.3
20260905101553 73 26 0.0 0.0 0.00 0.00 0.00 93 1012.1
20260905100035 74 26 0.0 0.0 0.00 0.00 0.00 94 1012.0
20260905094548 74 26 0.0 0.0 0.00 0.00 0.00 94 1012.0
20260905093041 75 26 0.0 0.0 0.00 0.00 0.00 94 1012.0
20260905091549 75 26 0.0 0.0 0.00 0.00 0.00 94 1012.0